Location: Kielce
(50.8833°N, 20.6167°E)
Time: 22:45:42
(UTC+02:00)

SR - Pass Details

Date: 21 April 2021
Orbit: 573 x 882 km, 66.7° (Epoch: 16 May)

Event Time Altitude Azimuth Distance (km) Brightness Sun altitude
Rises 12:56:02 0° 310° (NW) 3,485 ? 50.9°
Reaches altitude 10° 12:59:24 10° 328° (NNW) 2,550 ? 50.9°
Maximum altitude 13:03:26 18° 11° (NNE) 2,003 ? 50.7°
Drops below altitude 10° 13:07:25 10° 54° (NE) 2,507 ? 50.6°
Sets 13:10:41 0° 73° (ENE) 3,404 ? 50.5°
